User: anonymous   Login
Location: Unspecified
(0.0000°N, 0.0000°E)
Time: 01:50:04
(UTC+00:00)
Language:

N. Korean satellite - Orbit

View from above orbital plane
View from above orbital plane
View from above satellite
View from above satellite

Ground track
Ground track

The orbit data is extracted from the following two-line orbital elements,

1 39026U 12072A   16210.59352747  .00001513  00000-0  64262-4 0  9998
2 39026  97.2466 233.4170 0040757 240.1165 119.6021 15.23857967200687
Epoch (UTC): 28 July 2016 14:14:40
Eccentricity: 0.0040757
inclination: 97.2466°
perigee height: 466 km
apogee height: 522 km
right ascension of ascending node: 233.4170°
argument of perigee: 240.1165°
revolutions per day: 15.23857967
mean anomaly at epoch: 119.6021°
orbit number at epoch: 20068

The dashed part of the orbit path shows where the satellite is in the earth's shadow,  

DLR